Fort Myers, FL (33965)

1:59 PM EDT on April 24, 2017 (GMT -0400)
Florida Gulf Coast University WeatherSTEM | | Change Station
Active Advisory: Lake Wind Advisory

Elev 39 ft 26.46 °N, 81.77 °W | Updated 58 seconds ago

Mostly Cloudy
Mostly Cloudy
78.4 °F
Feels Like 81 °F
N
2.0
Wind Variable Wind from West

Today
High -- | Low -- °F
--% Chance of Precip.
Yesterday
High -- | Low -- °F
Precip. -- in
Pressure 29.77 in
Visibility 8.0 miles
Clouds Few 1900 ft
Mostly Cloudy 3100 ft
Mostly Cloudy 3900 ft
Heat Index 81 °F
Dew Point 73 °F
Humidity 82%
Rainfall 0.00 in
Snow Depth Not available.
6:54 AM 7:55 PM
Waning Crescent, 4% visible
METAR KRSW 241753Z 26010KT 8SM FEW019 BKN031 BKN039 25/22 A2977 RMK AO2 WSHFT 1655 RAB01E48 SLP080 P0036 60036 T02500217 10278 20211 56012
Pressure 29.77 in
Visibility 8.0 miles
Clouds Few 1900 ft
Mostly Cloudy 3100 ft
Mostly Cloudy 3900 ft
Heat Index 81 °F
Dew Point 73 °F
Humidity 82%
Rainfall 0.00 in
Snow Depth Not available.
6:54 AM 7:55 PM
Waning Crescent, 4% visible
METAR KRSW 241753Z 26010KT 8SM FEW019 BKN031 BKN039 25/22 A2977 RMK AO2 WSHFT 1655 RAB01E48 SLP080 P0036 60036 T02500217 10278 20211 56012

Get Your Daily Forecast Email!

Thanks for signing up!

Be on the lookout for a verification email in your inbox.

You'll start receiving severe weather alerts in your inbox..

×

10-Day Weather Forecast

Almanac

Astronomy

Apr. 24, 2017 Rise Set
Actual Time
Civil Twilight
Nautical Twilight
Astronomical Twilight
Moon
Length of Visible Light
Length of Day
Tomorrow will be .
, % of the Moon is Illuminated

Today's Extremes

State Highs State Lows

Community

WunderPhotos

WunderBlog® & News

Nearby

Air Quality

  Air Quality AQ Index Pollutant
Not available.

Snow Depth

Station Depth Elevation

Earthquake Activity

City Distance Mag. Time & Date
Minimum magnitude displayed is 2.5.

Coastal Water Temperatures

Place Temperature

Stations

Nearby Weather Stations

Station Location Temp. Windchill Dew Point Humidity Wind Precip. Elev Updated Type
                   

Watches & Warnings

Lake Wind Advisory
Issued: 3:30 AM EDT Apr. 24, 2017 – National Weather Service

... Lake Wind Advisory in effect from noon today to 7 PM EDT this
evening...

The National Weather Service in Tampa Bay area - Ruskin FL has
issued a lake Wind Advisory, which is in effect from noon today
to 7 PM EDT this evening.

* Timing... noon through 7 PM EDT this evening.

* Winds... 20 to 25 mph with a few higher gusts.

* Impacts... strong gusty winds will make for choppy and difficult
boating conditions on areas lakes.

Precautionary/preparedness actions...

A lake Wind Advisory indicates that winds will cause rough chop
on area lakes. Small boats will be especially prone to capsizing.